User: anonymous   Login
Location: Kitchener
(43.2612°N, 80.5078°W)
Time: 03:29:12
(UTC+02:00)
Language:

Iridium 57 - Orbit

View from above orbital plane
View from above orbital plane
View from above satellite
View from above satellite

Ground track
Ground track

The orbit data is extracted from the following two-line orbital elements,

1 25273U 98019B   17086.73861045 +.00000105 +00000-0 +30560-4 0  9996
2 25273 086.3966 321.3816 0002198 084.7164 275.4282 14.34261525994187
Epoch (UTC): 27 March 2017 17:43:35
Eccentricity: 0.0002198
inclination: 86.3966°
perigee height: 776 km
apogee height: 779 km
right ascension of ascending node: 321.3816°
argument of perigee: 84.7164°
revolutions per day: 14.34261525
mean anomaly at epoch: 275.4282°
orbit number at epoch: 99418

The dashed part of the orbit path shows where the satellite is in the earth's shadow,  

DLR